Tracking 28790 objects as of 18-Apr-2024
HD Live streaming from Space Station
objects crossing your sky now

THOR ABLESTAR DEB

Track THOR ABLESTAR DEB now!
10-day predictions


NORAD ID: 3164
Int'l Code: 1961-015HZ
Perigee: 854.4 km
Apogee: 935.1 km
Inclination: 66.7 °
Period: 102.7 minutes
Semi major axis: 7265 km
RCS: 0.0289 m2 (small)
Launch date: June 29, 1961
Source: United States (US)
Launch site: AIR FORCE EASTERN TEST RANGE (AFETR)

Note: This is SATELLITE DEBRIS
Your satellite tracking list
Your tracking list is empty




NASA's NSSDC Master Catalog

Two Line Element Set (TLE):
1 03164U 61015HZ  24109.48996524  .00002831  00000-0  18877-2 0  9997
2 03164  66.7473 262.8694 0055538 247.3251 112.1955 14.01793639977006
Source of the keplerian elements: AFSPC